DW4236 Weather Reports


time (UTC)temp
F
wind
direction
speed
knots
gust
knots
rain 1hr
in
rain 24hr
in
rain mn
in
humidity
%
barometer
mb
20240614111604 71 297 0.0 1.7 0.00 0.00 0.00 83 1013.1
20240614110605 70 213 0.9 1.7 0.00 0.00 0.00 83 1013.1
20240614110105 70 213 0.0 0.9 0.00 0.00 0.00 83 1013.0
20240614105604 70 232 0.0 2.6 0.00 0.00 0.00 83 1013.0
20240614104604 70 239 0.9 4.3 0.00 0.00 0.00 83 1013.0
20240614104105 69 315 0.0 0.0 0.00 0.00 0.00 83 1012.9
20240614102604 69 315 0.9 2.6 0.00 0.00 0.00 83 1012.8
20240614102104 69 316 0.9 7.0 0.00 0.00 0.00 84 1012.8
20240614101605 69 300 0.0 2.6 0.00 0.00 0.00 84 1012.6
20240614101104 69 222 0.0 2.6 0.00 0.00 0.00 84 1012.7
20240614100106 69 230 0.9 2.6 0.00 0.00 0.00 84 1012.5
20240614095604 69 259 0.9 2.6 0.00 0.00 0.00 84 1012.5
20240614094605 69 295 1.7 2.6 0.00 0.00 0.00 84 1012.6
20240614094104 69 270 2.6 7.8 0.00 0.00 0.00 84 1012.4
20240614093604 69 262 0.9 2.6 0.00 0.00 0.00 84 1012.4
20240614093104 69 291 0.0 5.2 0.00 0.00 0.00 84 1012.3
20240614092605 69 267 0.9 6.1 0.00 0.00 0.00 84 1012.4
20240614092104 69 284 2.6 5.2 0.00 0.00 0.00 84 1012.4
20240614091605 69 287 0.9 5.2 0.00 0.00 0.00 84 1012.3
20240614091104 69 251 0.0 0.9 0.00 0.00 0.00 83 1012.3
20240614090604 69 257 0.9 7.0 0.00 0.00 0.00 83 1012.3
20240614090105 69 254 0.9 4.3 0.00 0.00 0.00 83 1012.5
20240614085605 69 267 0.0 4.3 0.00 0.00 0.00 83 1012.6
20240614085104 69 214 0.9 2.6 0.00 0.00 0.00 83 1012.7
20240614084604 69 305 0.0 1.7 0.00 0.00 0.00 82 1012.7
20240614084104 69 296 0.9 7.0 0.00 0.00 0.00 82 1012.7
20240614083604 69 283 1.7 5.2 0.00 0.00 0.00 82 1012.6
20240614083104 69 291 1.7 6.1 0.00 0.00 0.00 82 1012.6
20240614082604 69 263 1.7 6.1 0.00 0.00 0.00 83 1012.6
20240614082104 69 195 0.0 1.7 0.00 0.00 0.00 82 1012.6
20240614081604 69 240 0.9 2.6 0.00 0.00 0.00 82 1012.5
20240614081105 70 297 0.9 2.6 0.00 0.00 0.00 82 1012.6
20240614080604 70 218 0.9 2.6 0.00 0.00 0.00 82 1012.6
20240614075104 70 302 0.9 2.6 0.00 0.00 0.00 81 1012.7
20240614074105 70 264 1.7 5.2 0.00 0.00 0.00 81 1012.7
20240614073605 70 304 2.6 5.2 0.00 0.00 0.00 81 1012.7
20240614073104 70 265 0.9 4.3 0.00 0.00 0.00 81 1012.6
20240614072606 70 326 0.9 5.2 0.00 0.00 0.00 80 1012.6
20240614072105 70 317 0.9 2.6 0.00 0.00 0.00 81 1012.6
20240614071604 70 306 1.7 6.1 0.00 0.00 0.00 81 1012.6
20240614071104 70 280 0.9 4.3 0.00 0.00 0.00 80 1012.7
20240614070604 70 267 0.9 5.2 0.00 0.00 0.00 80 1012.7
20240614070104 70 297 1.7 5.2 0.00 0.00 0.00 80 1012.9
20240614065605 70 292 0.0 0.0 0.00 0.00 0.00 80 1012.9
20240614065103 71 292 0.9 2.6 0.00 0.00 0.00 80 1013.0
20240614064604 71 303 0.9 2.6 0.00 0.00 0.00 80 1013.0
20240614064104 71 309 0.9 2.6 0.00 0.00 0.00 79 1013.1
20240614063604 71 294 0.9 2.6 0.00 0.00 0.00 79 1013.1
20240614063105 71 186 0.0 1.7 0.00 0.00 0.00 79 1013.3
20240614062604 71 235 0.0 2.6 0.00 0.00 0.00 78 1013.4
20240614062105 71 280 0.0 1.7 0.00 0.00 0.00 78 1013.4
20240614061104 71 277 0.0 4.3 0.00 0.00 0.00 77 1013.6
20240614060604 72 267 0.9 6.1 0.00 0.00 0.00 77 1013.6
20240614060104 72 249 1.7 7.8 0.00 0.00 0.00 77 1013.6
20240614055604 72 281 1.7 7.8 0.00 0.00 0.00 77 1013.7
20240614055105 72 278 3.5 11.3 0.00 0.00 0.00 77 1013.7
20240614054604 72 274 0.0 2.6 0.00 0.00 0.00 76 1013.7
20240614054105 72 259 3.5 11.3 0.00 0.00 0.00 76 1013.7
20240614053604 72 272 1.7 10.4 0.00 0.00 0.00 76 1013.6
20240614053104 72 312 2.6 7.8 0.00 0.00 0.00 76 1013.7
20240614052104 73 298 1.7 6.1 0.00 0.00 0.00 76 1013.8
20240614051605 73 271 4.3 10.4 0.00 0.00 0.00 75 1013.8
20240614051104 73 297 1.7 7.0 0.00 0.00 0.00 75 1013.9
20240614050605 73 260 1.7 10.4 0.00 0.00 0.00 75 1014.0
20240614050104 73 287 3.5 8.7 0.00 0.00 0.00 75 1014.0
20240614045604 73 305 0.9 6.1 0.00 0.00 0.00 75 1014.0
20240614045105 73 262 2.6 7.0 0.00 0.00 0.00 75 1014.1
20240614044604 73 247 4.3 10.4 0.00 0.00 0.00 75 1014.1
20240614044104 73 280 1.7 8.7 0.00 0.00 0.00 75 1014.2
20240614043105 73 259 1.7 10.4 0.00 0.00 0.00 74 1014.3
20240614042605 73 227 2.6 7.0 0.00 0.00 0.00 74 1014.3
20240614042105 73 292 0.9 8.7 0.00 0.00 0.00 74 1014.4
20240614041104 74 291 2.6 6.1 0.00 0.00 0.00 74 1014.6
20240614040604 74 320 1.7 6.1 0.00 0.00 0.00 74 1014.7
20240614040104 74 299 1.7 4.3 0.00 0.00 0.00 73 1014.8
20240614035604 74 318 1.7 2.6 0.00 0.00 0.00 73 1014.8
20240614035106 74 303 1.7 2.6 0.00 0.00 0.00 72 1014.7
20240614034604 74 308 1.7 6.1 0.00 0.00 0.00 72 1014.7
20240614034104 74 306 1.7 2.6 0.00 0.00 0.00 72 1014.7
20240614033605 74 312 0.9 5.2 0.00 0.00 0.00 72 1014.7
20240614033104 74 299 0.0 4.3 0.00 0.00 0.00 72 1014.7
20240614032604 74 323 0.9 4.3 0.00 0.00 0.00 72 1014.6
20240614032104 74 282 0.9 2.6 0.00 0.00 0.00 71 1014.7
20240614031604 74 211 2.6 6.1 0.00 0.00 0.00 71 1014.7
20240614031104 74 301 1.7 7.0 0.00 0.00 0.00 71 1014.7
20240614030604 74 299 2.6 7.8 0.00 0.00 0.00 72 1014.6
20240614025604 73 310 0.9 2.6 0.00 0.00 0.00 72 1014.5
20240614025104 73 308 0.0 1.7 0.00 0.00 0.00 71 1014.5
20240614024604 73 304 0.9 4.3 0.00 0.00 0.00 71 1014.5
20240614024105 74 245 0.0 1.7 0.00 0.00 0.00 71 1014.5
20240614023605 74 252 0.9 2.6 0.00 0.00 0.00 70 1014.6
20240614022604 74 238 1.7 5.2 0.00 0.00 0.00 70 1014.5
20240614022104 74 251 1.7 5.2 0.00 0.00 0.00 70 1014.5
20240614021604 73 230 0.9 2.6 0.00 0.00 0.00 70 1014.6
20240614021105 73 207 0.9 2.6 0.00 0.00 0.00 70 1014.7
20240614020104 74 291 0.0 5.2 0.00 0.00 0.00 69 1014.8
20240614015604 74 306 0.0 1.7 0.00 0.00 0.00 69 1014.8
20240614015104 73 291 0.9 1.7 0.00 0.00 0.00 69 1014.9
20240614014605 73 288 0.0 0.9 0.00 0.00 0.00 69 1014.9
20240614014104 73 288 0.0 1.7 0.00 0.00 0.00 69 1015.0
20240614013604 74 197 0.0 0.0 0.00 0.00 0.00 68 1015.0
20240614013105 74 197 0.0 0.0 0.00 0.00 0.00 68 1014.9
20240614012604 74 197 0.0 0.0 0.00 0.00 0.00 67 1014.8
20240614012105 74 197 0.0 0.0 0.00 0.00 0.00 67 1014.7
20240614011605 75 197 0.0 0.9 0.00 0.00 0.00 66 1014.7
20240614011104 75 197 0.0 0.9 0.00 0.00 0.00 66 1014.6
20240614010605 75 197 0.0 0.9 0.00 0.00 0.00 65 1014.7
20240614010105 76 197 0.0 2.6 0.00 0.00 0.00 64 1014.6
20240614005604 76 197 0.0 2.6 0.00 0.00 0.00 64 1014.5
20240614005105 76 292 0.9 2.6 0.00 0.00 0.00 63 1014.5
20240614004605 77 286 0.9 2.6 0.00 0.00 0.00 62 1014.5
20240614003104 77 217 0.9 2.6 0.00 0.00 0.00 60 1014.5
20240614002605 78 247 0.9 5.2 0.00 0.00 0.00 60 1014.5
20240614002104 78 254 1.7 7.0 0.00 0.00 0.00 59 1014.5
20240614001104 78 190 0.9 5.2 0.00 0.00 0.00 59 1014.4
20240614000604 78 215 0.9 6.1 0.00 0.00 0.00 58 1014.5
20240613235604 79 245 1.7 6.1 0.00 0.00 0.00 57 1014.6
20240613235105 79 224 1.7 5.2 0.00 0.00 0.00 57 1014.7
20240613234605 80 200 0.0 4.3 0.00 0.00 0.00 57 1014.8
20240613234104 80 256 0.9 7.8 0.00 0.00 0.00 56 1014.9
20240613233604 80 220 3.5 12.2 0.00 0.00 0.00 55 1014.7
20240613233104 81 223 4.3 10.4 0.00 0.00 0.00 55 1014.7
20240613232605 81 214 2.6 8.7 0.00 0.00 0.00 54 1014.6
20240613231604 83 219 1.7 6.1 0.00 0.00 0.00 50 1014.6
20240613231104 83 263 0.9 4.3 0.00 0.00 0.00 51 1014.6
20240613230604 83 296 1.7 5.2 0.00 0.00 0.00 49 1014.4
20240613230105 83 300 1.7 4.3 0.00 0.00 0.00 48 1014.5
20240613225604 84 239 0.9 4.3 0.00 0.00 0.00 49 1014.4
20240613224604 84 267 0.0 4.3 0.00 0.00 0.00 49 1014.4
20240613223105 84 289 2.6 7.0 0.00 0.00 0.00 47 1014.2
20240613222605 85 261 2.6 7.8 0.00 0.00 0.00 47 1014.1
20240613222104 85 227 4.3 10.4 0.00 0.00 0.00 46 1014.2
20240613221104 86 246 1.7 7.0 0.00 0.00 0.00 46 1014.2
20240613215605 86 281 4.3 8.7 0.00 0.00 0.00 45 1014.0
20240613215104 86 284 1.7 10.4 0.00 0.00 0.00 45 1014.1
20240613214604 86 301 6.1 11.3 0.00 0.00 0.00 43 1014.1
20240613214104 87 308 5.2 10.4 0.00 0.00 0.00 43 1014.2
20240613213104 87 274 5.2 10.4 0.00 0.00 0.00 43 1014.2
20240613212605 87 291 4.3 7.0 0.00 0.00 0.00 41 1014.3
20240613212105 88 293 1.7 7.0 0.00 0.00 0.00 44 1014.3
20240613211604 87 56 1.7 7.0 0.00 0.00 0.00 43 1014.3
20240613211104 87 317 5.2 13.0 0.00 0.00 0.00 43 1014.4
20240613210604 87 300 6.1 12.2 0.00 0.00 0.00 42 1014.3
20240613210104 87 297 7.0 11.3 0.00 0.00 0.00 42 1014.4
20240613205604 88 298 6.1 12.2 0.00 0.00 0.00 42 1014.5
20240613204603 87 291 4.3 7.0 0.00 0.00 0.00 44 1014.5
20240613204105 87 256 2.6 7.8 0.00 0.00 0.00 43 1014.5
20240613203605 88 292 1.7 7.8 0.00 0.00 0.00 45 1014.5
20240613202604 87 289 2.6 8.7 0.00 0.00 0.00 45 1014.5
20240613202104 87 257 2.6 8.7 0.00 0.00 0.00 44 1014.5
20240613201604 87 242 1.7 4.3 0.00 0.00 0.00 46 1014.5
20240613201103 86 260 2.6 6.1 0.00 0.00 0.00 45 1014.6
20240613200604 87 287 0.9 4.3 0.00 0.00 0.00 44 1014.7
20240613200104 88 255 2.6 10.4 0.00 0.00 0.00 43 1014.8
20240613195604 88 211 1.7 8.7 0.00 0.00 0.00 43 1014.8
20240613194604 88 231 3.5 7.0 0.00 0.00 0.00 40 1014.9
20240613194105 89 265 6.1 10.4 0.00 0.00 0.00 38 1015.0
20240613193604 89 260 1.7 7.8 0.00 0.00 0.00 39 1015.0
20240613193104 89 274 2.6 10.4 0.00 0.00 0.00 39 1015.1
20240613192603 89 329 3.5 12.2 0.00 0.00 0.00 38 1015.1
20240613192104 88 319 2.6 7.8 0.00 0.00 0.00 38 1015.1
20240613191604 88 302 2.6 10.4 0.00 0.00 0.00 37 1015.2
20240613191103 88 314 1.7 7.0 0.00 0.00 0.00 40 1015.3
20240613190105 88 311 4.3 10.4 0.00 0.00 0.00 37 1015.4
20240613185603 88 315 4.3 8.7 0.00 0.00 0.00 42 1015.5
20240613185105 88 301 3.5 10.4 0.00 0.00 0.00 42 1015.6
20240613184604 87 302 2.6 6.1 0.00 0.00 0.00 42 1015.6
20240613184105 88 237 1.7 6.1 0.00 0.00 0.00 43 1015.6
20240613183605 87 259 1.7 7.0 0.00 0.00 0.00 43 1015.6
20240613183104 88 307 4.3 13.9 0.00 0.00 0.00 38 1015.7
20240613182604 88 299 4.3 13.0 0.00 0.00 0.00 39 1015.7
20240613181604 87 315 5.2 8.7 0.00 0.00 0.00 39 1015.8
20240613181104 87 339 0.9 7.8 0.00 0.00 0.00 41 1015.9
20240613180603 87 274 5.2 12.2 0.00 0.00 0.00 43 1015.9
20240613180104 87 309 2.6 10.4 0.00 0.00 0.00 44 1015.9
20240613175604 87 266 5.2 10.4 0.00 0.00 0.00 40 1015.9
20240613175104 87 257 1.7 6.1 0.00 0.00 0.00 46 1015.9
20240613174604 86 235 3.5 10.4 0.00 0.00 0.00 43 1016.0
20240613174104 87 294 2.6 10.4 0.00 0.00 0.00 44 1016.0
20240613173605 87 269 4.3 7.8 0.00 0.00 0.00 41 1016.1
20240613173104 86 268 1.7 5.2 0.00 0.00 0.00 43 1016.1
20240613172604 86 249 3.5 10.4 0.00 0.00 0.00 45 1016.1
20240613172104 86 341 5.2 10.4 0.00 0.00 0.00 41 1016.0
20240613171604 86 330 1.7 5.2 0.00 0.00 0.00 41 1016.0
20240613171104 86 280 2.6 7.8 0.00 0.00 0.00 44 1016.2
20240613170604 85 15 1.7 2.6 0.00 0.00 0.00 46 1016.2
20240613170105 84 200 1.7 4.3 0.00 0.00 0.00 50 1016.4
20240613165605 84 287 5.2 8.7 0.00 0.00 0.00 43 1016.5
20240613165105 84 307 4.3 10.4 0.00 0.00 0.00 45 1016.6
20240613164604 84 337 2.6 8.7 0.00 0.00 0.00 46 1016.5
20240613164104 84 338 5.2 10.4 0.00 0.00 0.00 45 1016.6
20240613163604 83 293 2.6 6.1 0.00 0.00 0.00 49 1016.6
20240613163104 83 273 4.3 7.8 0.00 0.00 0.00 47 1016.7
20240613162605 83 302 3.5 8.7 0.00 0.00 0.00 47 1016.7
20240613162105 83 314 1.7 8.7 0.00 0.00 0.00 50 1016.7
20240613161604 82 345 4.3 7.0 0.00 0.00 0.00 49 1016.8
20240613161104 82 310 4.3 6.1 0.00 0.00 0.00 51 1016.8
20240613160604 82 270 2.6 7.8 0.00 0.00 0.00 51 1016.8
20240613160104 82 12 1.7 6.1 0.00 0.00 0.00 53 1016.9
20240613155604 81 5 2.6 7.0 0.00 0.00 0.00 51 1017.0
20240613155104 82 296 2.6 8.7 0.00 0.00 0.00 53 1017.0
20240613154604 81 9 0.9 4.3 0.00 0.00 0.00 55 1017.0
20240613154104 81 229 0.9 6.1 0.00 0.00 0.00 57 1017.1
20240613153604 81 344 2.6 6.1 0.00 0.00 0.00 55 1017.1
20240613153105 81 273 1.7 5.2 0.00 0.00 0.00 55 1017.2
20240613152604 80 347 2.6 6.1 0.00 0.00 0.00 56 1017.1
20240613152104 80 343 2.6 6.1 0.00 0.00 0.00 56 1017.1
20240613151604 80 263 1.7 5.2 0.00 0.00 0.00 59 1017.1
20240613150604 78 272 2.6 8.7 0.00 0.00 0.00 59 1017.2
20240613150105 78 311 4.3 10.4 0.00 0.00 0.00 57 1017.3
20240613145604 77 312 3.5 10.4 0.00 0.00 0.00 58 1017.3
20240613145104 77 310 1.7 7.8 0.00 0.00 0.00 58 1017.3
20240613144604 78 301 3.5 7.0 0.00 0.00 0.00 57 1017.3
20240613144104 77 327 3.5 7.8 0.00 0.00 0.00 59 1017.3
20240613143104 76 318 1.7 6.1 0.00 0.00 0.00 64 1017.3
20240613142604 75 20 1.7 7.0 0.00 0.00 0.00 63 1017.3
20240613142103 75 334 1.7 6.1 0.00 0.00 0.00 61 1017.3
20240613141604 74 7 1.7 7.0 0.00 0.00 0.00 62 1017.3
20240613141105 75 288 2.6 7.0 0.00 0.00 0.00 62 1017.5
20240613140605 74 313 2.6 5.2 0.00 0.00 0.00 63 1017.4
20240613140105 73 305 2.6 6.1 0.00 0.00 0.00 64 1017.6
20240613135604 73 331 1.7 5.2 0.00 0.00 0.00 66 1017.5
20240613134604 72 303 4.3 7.8 0.00 0.00 0.00 64 1017.6
20240613134104 72 305 2.6 7.0 0.00 0.00 0.00 66 1017.7
20240613133604 72 305 4.3 7.0 0.00 0.00 0.00 64 1017.8
20240613133104 71 357 1.7 6.1 0.00 0.00 0.00 66 1017.8
20240613132605 71 306 4.3 7.0 0.00 0.00 0.00 65 1017.9
20240613132104 71 317 1.7 6.1 0.00 0.00 0.00 68 1017.9
20240613131603 70 306 2.6 6.1 0.00 0.00 0.00 68 1017.9
20240613130604 70 302 1.7 6.1 0.00 0.00 0.00 71 1018.0
20240613130104 69 313 1.7 4.3 0.00 0.00 0.00 73 1018.1
20240613125604 69 304 1.7 4.3 0.00 0.00 0.00 74 1018.1
20240613125104 68 20 0.0 5.2 0.00 0.00 0.00 78 1018.2
20240613124605 67 307 0.9 2.6 0.00 0.00 0.00 76 1018.2
20240613124104 67 312 1.7 5.2 0.00 0.00 0.00 77 1018.1
20240613123604 66 300 0.9 2.6 0.00 0.00 0.00 79 1018.0
20240613122104 64 325 0.9 2.6 0.00 0.00 0.00 83 1018.0
20240613121604 64 305 1.7 2.6 0.00 0.00 0.00 84 1018.0
20240613121104 63 306 0.0 0.0 0.00 0.00 0.00 85 1018.0
20240613120104 62 306 0.0 0.0 0.00 0.00 0.00 87 1018.0
20240613115604 62 306 0.0 0.0 0.00 0.00 0.00 88 1018.0
20240613115104 61 306 0.0 1.7 0.00 0.00 0.00 88 1018.1
20240613114604 61 306 0.9 2.6 0.00 0.00 0.00 89 1018.1
20240613114105 60 306 1.7 2.6 0.00 0.00 0.00 90 1018.1
20240613113105 59 308 0.0 2.6 0.00 0.00 0.00 92 1018.1
20240613112605 59 327 0.9 2.6 0.00 0.00 0.00 93 1018.1
20240613112104 58 289 1.7 2.6 0.00 0.00 0.00 93 1018.1